TimeHST,TemperatureF,Dew PointF,Humidity,Sea Level PressureIn,VisibilityMPH,Wind Direction,Wind SpeedMPH,Gust SpeedMPH,PrecipitationIn,Events,Conditions,WindDirDegrees,DateUTC
12:56 AM,66.9,61.9,84,30.11,-9999.0,East,12.7,-,N/A,,Clear,80,2013-02-22 10:56:00
1:25 AM,68.0,62.6,83,30.16,-9999.0,ENE,11.5,20.7,N/A,,Mostly Cloudy,70,2013-02-22 11:25:00
1:56 AM,66.2,62.6,88,30.14,-9999.0,ENE,15.0,-,N/A,,Clear,60,2013-02-22 11:56:00
2:56 AM,66.9,61.9,84,30.08,-9999.0,East,9.2,-,N/A,,Clear,100,2013-02-22 12:56:00
3:56 AM,65.8,61.9,87,30.05,-9999.0,NNE,9.2,-,N/A,,Clear,30,2013-02-22 13:56:00
4:43 AM,66.2,62.6,88,30.10,-9999.0,NNE,9.2,-,N/A,,Mostly Cloudy,30,2013-02-22 14:43:00
4:56 AM,66.9,61.9,84,30.05,-9999.0,NNE,4.6,-,N/A,,Mostly Cloudy,20,2013-02-22 14:56:00
5:12 AM,66.2,60.8,83,30.09,-9999.0,NNE,5.8,-,N/A,,Clear,30,2013-02-22 15:12:00
5:56 AM,64.9,61.0,87,30.06,-9999.0,NNE,10.4,-,N/A,,Clear,30,2013-02-22 15:56:00
6:56 AM,63.9,59.9,87,30.09,-9999.0,East,6.9,-,N/A,,Clear,80,2013-02-22 16:56:00
7:15 AM,64.4,60.8,88,30.13,-9999.0,ENE,5.8,-,N/A,,Mostly Cloudy,70,2013-02-22 17:15:00
7:56 AM,69.8,60.8,73,30.14,-9999.0,Variable,3.5,-,N/A,,Clear,0,2013-02-22 17:56:00
8:56 AM,73.9,61.9,66,30.11,-9999.0,NNE,8.1,-,N/A,,Mostly Cloudy,20,2013-02-22 18:56:00
9:29 AM,77.0,62.6,61,30.17,-9999.0,North,6.9,-,N/A,,Clear,350,2013-02-22 19:29:00
9:44 AM,75.2,62.6,65,30.17,-9999.0,NNE,16.1,-,N/A,,Mostly Cloudy,30,2013-02-22 19:44:00
9:56 AM,74.8,61.9,64,30.12,-9999.0,NNE,13.8,-,N/A,,Mostly Cloudy,30,2013-02-22 19:56:00
10:05 AM,75.2,62.6,65,30.16,-9999.0,NNE,15.0,-,N/A,,Mostly Cloudy,30,2013-02-22 20:05:00
10:56 AM,74.8,63.0,66,30.11,-9999.0,NE,13.8,-,0.00,Rain,Light Rain,40,2013-02-22 20:56:00
11:36 AM,71.6,62.6,73,30.15,-9999.0,ENE,16.1,-,0.00,Rain,Heavy Rain,60,2013-02-22 21:36:00
11:56 AM,68.9,64.9,87,30.10,-9999.0,ENE,10.4,-,0.00,Rain,Light Rain,70,2013-02-22 21:56:00
12:24 PM,73.4,66.2,78,30.13,-9999.0,ENE,15.0,-,0.01,,Mostly Cloudy,60,2013-02-22 22:24:00
12:56 PM,75.9,63.9,66,30.06,-9999.0,NE,16.1,-,0.01,,Mostly Cloudy,40,2013-02-22 22:56:00
1:56 PM,72.0,61.9,70,30.05,-9999.0,NE,21.9,-,N/A,,Mostly Cloudy,50,2013-02-22 23:56:00
2:37 PM,75.2,62.6,65,30.08,-9999.0,NE,20.7,26.5,0.00,,Mostly Cloudy,40,2013-02-23 00:37:00
2:48 PM,77.0,62.6,61,30.08,-9999.0,NE,18.4,26.5,0.00,,Clear,40,2013-02-23 00:48:00
2:56 PM,75.9,61.9,62,30.02,-9999.0,NE,17.3,27.6,0.00,,Clear,40,2013-02-23 00:56:00
3:56 PM,74.8,63.0,66,30.01,-9999.0,NE,25.3,33.4,0.00,,Clear,50,2013-02-23 01:56:00
4:56 PM,73.9,63.0,68,30.02,-9999.0,NE,23.0,28.8,N/A,,Clear,40,2013-02-23 02:56:00
5:56 PM,70.9,61.0,71,30.05,-9999.0,NE,17.3,-,N/A,,Clear,50,2013-02-23 03:56:00
6:42 PM,68.0,62.6,83,30.12,-9999.0,NE,16.1,-,N/A,,Mostly Cloudy,50,2013-02-23 04:42:00
6:56 PM,68.0,61.9,81,30.08,-9999.0,East,11.5,-,N/A,,Mostly Cloudy,80,2013-02-23 04:56:00
7:30 PM,66.2,60.8,83,30.12,-9999.0,ENE,13.8,-,N/A,,Clear,70,2013-02-23 05:30:00
7:56 PM,66.2,62.6,88,30.13,-9999.0,ENE,11.5,-,N/A,,Clear,70,2013-02-23 05:56:00
8:56 PM,66.9,61.9,84,30.09,-9999.0,East,9.2,-,N/A,,Clear,80,2013-02-23 06:56:00
9:56 PM,66.9,61.9,84,30.10,-9999.0,NNE,10.4,-,N/A,,Clear,20,2013-02-23 07:56:00
10:56 PM,65.8,61.0,84,30.10,-9999.0,East,13.8,21.9,N/A,,Clear,80,2013-02-23 08:56:00
11:56 PM,65.8,63.0,90,30.09,-9999.0,NNE,24.2,29.9,N/A,,Clear,30,2013-02-23 09:56:00